Weather in Salomatino

Russia / Volgograd Oblast     50°01′04″N   44°51′04″E
temp.,
°C
wind,
m/s
gust,
m/s
humid.,
%
clouds,
%
prec.,
mm/h
press.,
hPa
HPBL,
m
31 july, sat
sat3100:00+24sw245464 0.0 100994
03:00+21sw36687 0.0 100998
06:00+22wsw366716 0.0 1009178
09:00+28wsw464499 0.0 1010796
12:00+33wsw572774 0.0 10092406
15:00+34w4622100 0.0 10083299
18:00+31n353479 0.0 1009274
21:00+22ne34612 0.0 101172
1 august, sun
sun100:00+23ne22555 0.0 101218
03:00+22ne22574 0.0 101214
06:00+23ne23554 0.0 101392
09:00+30e33400 0.0 1013660
12:00+34e33251 0.0 10123178
15:00+35ese12199 0.0 10113590
18:00+34e1124100 0.0 101142
21:00+29ene493166 0.0 1012160
2 august, mon
mon200:00+29e61237100 0.0 1012306
03:00+27ene494321 0.0 1012237
06:00+25e47515 0.0 1013134
09:00+33se34260 0.0 1012552
12:00+35sse462197 0.0 10123061
15:00+37s341754 0.0 10103269
18:00+34ese242547 0.0 1010270
21:00+28s11313 0.1 101012
3 august, tue
tue300:00+26sse233115 0.0 101019
03:00+25ssw333050 0.0 101025
06:00+26s37325 0.0 1010144
09:00+34ssw571744 0.0 1010627
12:00+38s8911100 0.0 10093977
15:00+38s79105 0.0 10074209
18:00+35wsw252093 0.0 1006245
21:00+23n4769100 0.6 1009110
4 august, wed
wed400:00+23wsw0170100 0.6 101036
03:00+20wnw6117814 0.8 1011235
06:00+21nnw4781100 1.8 1012241
09:00+24nnw675974 1.8 1013621
12:00+27nnw5545100 0.1 10141286
15:00+29nnw55340 0.1 10141968
18:00+28nnw56330 0.0 10141871
21:00+22nnw49464 0.0 1015149